When you browse on this site, cookies collect data to enhance your experience and personalize the content and advertising you see.
Visit our Privacy Policy to learn more. By continuing to use the site, you agree to this use of cookies and data.
  • In Schweiz
  • Länderverzeichnis
  • Für 7 Tage
  • Wassertemperatur
  • Satellitenkarten
  • Wetterkarte
  • Widgets
  • user-avatar
    Anmelden

    Stündliche Wetter Motschudi

    Heute, 24 Januar, Donnerstag

    Zeit Temperatur Niederschläge Wind Luftdruck Luftfeuchtigkeit
    00:00 +31°C° 0 mm 1 m/S 678 mmHg 29%
    01:00 +31°C° 0 mm 1 m/S 677 mmHg 30%
    02:00 +30°C° 0 mm 1 m/S 677 mmHg 33%
    03:00 +30°C° 0.1 mm 1 m/S 677 mmHg 33%
    04:00 +29°C° 0.1 mm 1 m/S 678 mmHg 33%
    05:00 +29°C° 0.1 mm 2 m/S 678 mmHg 34%
    06:00 +30°C° 0 mm 2 m/S 678 mmHg 32%
    07:00 +30°C° 0 mm 2 m/S 678 mmHg 30%
    08:00 +31°C° 0 mm 3 m/S 679 mmHg 30%
    09:00 +34°C° 0 mm 3 m/S 679 mmHg 27%
    10:00 +36°C° 0 mm 3 m/S 680 mmHg 24%
    11:00 +38°C° 0 mm 3 m/S 680 mmHg 20%
    12:00 +39°C° 0 mm 3 m/S 680 mmHg 19%
    13:00 +40°C° 0 mm 3 m/S 679 mmHg 18%
    14:00 +41°C° 0 mm 2 m/S 679 mmHg 17%
    15:00 +40°C° 0 mm 2 m/S 679 mmHg 17%
    16:00 +40°C° 0 mm 2 m/S 678 mmHg 18%
    17:00 +39°C° 0 mm 2 m/S 678 mmHg 18%
    18:00 +38°C° 0 mm 2 m/S 677 mmHg 21%
    19:00 +36°C° 0 mm 2 m/S 677 mmHg 23%
    20:00 +35°C° 0 mm 2 m/S 677 mmHg 25%
    21:00 +34°C° 0 mm 3 m/S 678 mmHg 28%
    22:00 +33°C° 0 mm 3 m/S 678 mmHg 31%
    23:00 +31°C° 0 mm 3 m/S 678 mmHg 33%

    Morgen, 25 Januar, Freitag

    Zeit Temperatur Niederschläge Wind Luftdruck Luftfeuchtigkeit
    00:00 +30°C° 0 mm 4 m/S 678 mmHg 36%
    01:00 +30°C° 0 mm 5 m/S 678 mmHg 38%
    02:00 +30°C° 0 mm 6 m/S 678 mmHg 40%
    03:00 +29°C° 0 mm 6 m/S 679 mmHg 40%
    04:00 +28°C° 0 mm 5 m/S 679 mmHg 40%
    05:00 +27°C° 0 mm 5 m/S 679 mmHg 40%
    06:00 +27°C° 0 mm 5 m/S 679 mmHg 42%
    07:00 +27°C° 0 mm 5 m/S 680 mmHg 44%
    08:00 +27°C° 0 mm 5 m/S 681 mmHg 46%
    09:00 +28°C° 0 mm 5 m/S 681 mmHg 45%
    10:00 +29°C° 0 mm 5 m/S 681 mmHg 44%
    11:00 +30°C° 0 mm 5 m/S 681 mmHg 43%
    12:00 +33°C° 0 mm 5 m/S 681 mmHg 40%
    13:00 +34°C° 0 mm 5 m/S 680 mmHg 36%
    14:00 +36°C° 0 mm 5 m/S 680 mmHg 32%
    15:00 +37°C° 0 mm 4 m/S 680 mmHg 30%
    16:00 +37°C° 0 mm 4 m/S 679 mmHg 27%
    17:00 +38°C° 0 mm 4 m/S 679 mmHg 24%
    18:00 +36°C° 0.1 mm 3 m/S 678 mmHg 29%
    19:00 +34°C° 0.1 mm 3 m/S 678 mmHg 34%
    20:00 +31°C° 0.1 mm 3 m/S 678 mmHg 39%
    21:00 +29°C° 1.4 mm 3 m/S 679 mmHg 45%
    22:00 +28°C° 1.4 mm 3 m/S 679 mmHg 52%
    23:00 +27°C° 1.4 mm 3 m/S 679 mmHg 59%

    übermorgen, 26 Januar, Samstag

    Zeit Temperatur Niederschläge Wind Luftdruck Luftfeuchtigkeit
    00:00 +26°C° 0 mm 4 m/S 679 mmHg 59%
    01:00 +26°C° 0 mm 4 m/S 678 mmHg 60%
    02:00 +26°C° 0 mm 4 m/S 678 mmHg 60%
    03:00 +25°C° 0.5 mm 4 m/S 678 mmHg 61%
    04:00 +25°C° 0.5 mm 3 m/S 678 mmHg 62%
    05:00 +24°C° 0.5 mm 3 m/S 678 mmHg 63%
    06:00 +25°C° 0.7 mm 5 m/S 679 mmHg 62%
    07:00 +24°C° 0.7 mm 6 m/S 680 mmHg 60%
    08:00 +26°C° 0.7 mm 7 m/S 680 mmHg 58%
    09:00 +28°C° 0 mm 7 m/S 681 mmHg 52%
    10:00 +30°C° 0 mm 6 m/S 681 mmHg 46%
    11:00 +33°C° 0 mm 6 m/S 682 mmHg 40%
    12:00 +34°C° 0 mm 5 m/S 681 mmHg 35%
    13:00 +36°C° 0 mm 5 m/S 681 mmHg 31%
    14:00 +39°C° 0 mm 5 m/S 680 mmHg 27%
    15:00 +39°C° 0 mm 5 m/S 679 mmHg 26%
    16:00 +39°C° 0 mm 5 m/S 679 mmHg 25%
    17:00 +39°C° 0 mm 6 m/S 678 mmHg 24%
    18:00 +36°C° 0 mm 5 m/S 678 mmHg 30%
    19:00 +33°C° 0 mm 5 m/S 678 mmHg 36%
    20:00 +30°C° 0 mm 4 m/S 678 mmHg 42%
    21:00 +29°C° 1.5 mm 4 m/S 678 mmHg 46%
    22:00 +28°C° 1.5 mm 5 m/S 679 mmHg 50%
    23:00 +27°C° 1.5 mm 5 m/S 680 mmHg 53%

    27 Januar, Sonntag

    Zeit Temperatur Niederschläge Wind Luftdruck Luftfeuchtigkeit
    00:00 +27°C° 0.2 mm 5 m/S 680 mmHg 56%
    01:00 +26°C° 0.2 mm 6 m/S 680 mmHg 59%
    02:00 +26°C° 0.2 mm 6 m/S 680 mmHg 62%
    03:00 +24°C° 0 mm 6 m/S 680 mmHg 67%
    04:00 +25°C° 0 mm 5 m/S 680 mmHg 71%
    05:00 +23°C° 0 mm 5 m/S 680 mmHg 75%
    06:00 +23°C° 0 mm 5 m/S 680 mmHg 75%
    07:00 +23°C° 0 mm 6 m/S 681 mmHg 74%
    08:00 +23°C° 0 mm 7 m/S 681 mmHg 74%
    09:00 +24°C° 0 mm 7 m/S 681 mmHg 68%
    10:00 +26°C° 0 mm 7 m/S 681 mmHg 63%
    11:00 +28°C° 0 mm 7 m/S 681 mmHg 58%
    12:00 +29°C° 0 mm 6 m/S 681 mmHg 53%
    13:00 +32°C° 0 mm 6 m/S 681 mmHg 48%
    14:00 +33°C° 0 mm 5 m/S 680 mmHg 43%
    15:00 +33°C° 0 mm 4 m/S 680 mmHg 42%
    16:00 +33°C° 0 mm 4 m/S 679 mmHg 42%
    17:00 +33°C° 0 mm 3 m/S 679 mmHg 42%
    18:00 +32°C° 0 mm 4 m/S 679 mmHg 44%
    19:00 +30°C° 0 mm 4 m/S 678 mmHg 47%
    20:00 +29°C° 0 mm 5 m/S 678 mmHg 50%
    21:00 +28°C° 0.3 mm 6 m/S 679 mmHg 57%
    22:00 +26°C° 0.3 mm 6 m/S 679 mmHg 64%
    23:00 +24°C° 0.3 mm 7 m/S 680 mmHg 71%

    28 Januar, Montag

    Zeit Temperatur Niederschläge Wind Luftdruck Luftfeuchtigkeit
    00:00 +23°C° 0.3 mm 7 m/S 680 mmHg 72%
    01:00 +23°C° 0.3 mm 7 m/S 680 mmHg 73%
    02:00 +22°C° 0.3 mm 7 m/S 680 mmHg 73%
    03:00 +22°C° 0 mm 6 m/S 680 mmHg 74%
    04:00 +21°C° 0 mm 5 m/S 680 mmHg 75%
    05:00 +21°C° 0 mm 4 m/S 680 mmHg 76%
    06:00 +22°C° 0 mm 5 m/S 680 mmHg 75%
    07:00 +22°C° 0 mm 5 m/S 681 mmHg 73%
    08:00 +22°C° 0 mm 5 m/S 681 mmHg 71%
    09:00 +23°C° 0 mm 5 m/S 681 mmHg 69%
    10:00 +25°C° 0 mm 5 m/S 682 mmHg 66%
    11:00 +25°C° 0 mm 5 m/S 682 mmHg 63%
    12:00 +27°C° 0 mm 4 m/S 681 mmHg 57%
    13:00 +29°C° 0 mm 4 m/S 681 mmHg 51%
    14:00 +31°C° 0 mm 3 m/S 681 mmHg 44%
    15:00 +31°C° 0 mm 3 m/S 680 mmHg 42%
    16:00 +33°C° 0 mm 3 m/S 680 mmHg 40%
    17:00 +33°C° 0 mm 4 m/S 679 mmHg 38%
    18:00 +31°C° 0 mm 3 m/S 679 mmHg 42%
    19:00 +29°C° 0 mm 3 m/S 679 mmHg 46%
    20:00 +28°C° 0 mm 3 m/S 679 mmHg 51%
    21:00 +27°C° 0 mm 4 m/S 679 mmHg 53%
    22:00 +27°C° 0 mm 4 m/S 679 mmHg 55%
    23:00 +26°C° 0 mm 4 m/S 679 mmHg 57%

    29 Januar, Dienstag

    Zeit Temperatur Niederschläge Wind Luftdruck Luftfeuchtigkeit
    00:00 +26°C° 0 mm 4 m/S 679 mmHg 59%
    01:00 +25°C° 0 mm 4 m/S 680 mmHg 61%
    02:00 +23°C° 0 mm 5 m/S 680 mmHg 64%
    03:00 +23°C° 0 mm 4 m/S 680 mmHg 66%
    04:00 +22°C° 0 mm 4 m/S 680 mmHg 68%
    05:00 +22°C° 0 mm 3 m/S 681 mmHg 70%
    06:00 +22°C° 0 mm 4 m/S 681 mmHg 67%
    07:00 +23°C° 0 mm 4 m/S 682 mmHg 64%
    08:00 +25°C° 0 mm 4 m/S 682 mmHg 61%
    09:00 +27°C° 0 mm 4 m/S 683 mmHg 54%
    10:00 +29°C° 0 mm 4 m/S 683 mmHg 48%
    11:00 +32°C° 0 mm 4 m/S 683 mmHg 41%
    12:00 +33°C° 0 mm 4 m/S 682 mmHg 38%
    13:00 +34°C° 0 mm 3 m/S 682 mmHg 34%
    14:00 +35°C° 0 mm 3 m/S 681 mmHg 31%
    15:00 +36°C° 0 mm 2 m/S 681 mmHg 29%
    16:00 +36°C° 0 mm 2 m/S 680 mmHg 28%
    17:00 +35°C° 0 mm 1 m/S 680 mmHg 27%
    18:00 +34°C° 0 mm 2 m/S 680 mmHg 29%
    19:00 +32°C° 0 mm 2 m/S 680 mmHg 32%
    20:00 +31°C° 0 mm 2 m/S 680 mmHg 34%
    21:00 +30°C° 0 mm 2 m/S 680 mmHg 37%
    22:00 +29°C° 0 mm 2 m/S 680 mmHg 40%
    23:00 +28°C° 0 mm 3 m/S 680 mmHg 43%
    Mehr zeigen